Flag for Dominican Republic Weather past 2 weeks in Santiago de los Caballeros, Dominican Republic

Now
73 °F

Passing clouds.


Feels Like: 70 °F
Forecast: 72 / 82 °F
Wind: 5 mph from Southeast

Location: Santiago

Current Time: Mar 1, 2015 at 12:52:54 AM

Latest Report: Mar 1, 2015 at 12:00 AM


Visibility: N/A

Pressure: 30.12 "Hg

Humidity: 94%

Dew point: 72 °F

Location of Santiago de los CaballerosLocation

Historic Weather in Santiago de los Caballeros — Graph

°F

Santiago de los Caballeros temperature yesterday

Maximum temperature yesterday: 84 °F (at 1:00 PM)
Minimum temperature yesterday: 70 °F (at 3:00 AM)
Average temperature yesterday: 76 °F

Past Weeks' High & Low Weather Summary

 TemperatureHumidityPressure
High88 °F (Feb 18, 2:00 PM)100% (Feb 14, 4:00 AM)30.15 "Hg (Feb 14, 4:00 AM)
Low64 °F (Feb 17, 5:00 AM)49% (Feb 24, 3:00 PM)29.92 "Hg (Feb 18, 4:00 PM)
Average75 °F81%30.04 "Hg
* Reported Midnight between Feb 13 and Feb 14 — Midnight between Feb 28 and Mar 1, Santiago de los Caballeros, Weather by CustomWeather, © 2015

Note: Actual official high and low records may vary slightly from our data, if they occured in-between our weather recording intervals... More about our weather records

Advertising

Santiago de los Caballeros weather history for previous 24 hours

 ConditionsComfort  
Time TempWeatherWind HumidityBarometerVisibility
12:00 AM
Sun, Mar 1
73 °FPassing clouds.5 mph94%30.12 "HgN/A
11:00 PM
Sat, Feb 28
73 °FPartly cloudy.5 mph94%30.15 "HgN/A
10:00 PM73 °FPassing clouds.6 mph89%30.15 "HgN/A
9:00 PM75 °FPartly cloudy.8 mph83%30.12 "HgN/A
8:00 PM75 °FPassing clouds.9 mph78%30.12 "HgN/A
7:00 PM77 °FPassing clouds.14 mph74%30.09 "HgN/A
6:00 PM79 °FPassing clouds.13 mph70%30.07 "HgN/A
5:00 PM84 °FScattered clouds.15 mph58%30.04 "HgN/A
4:00 PM82 °FPassing clouds.13 mph62%30.07 "HgN/A
3:00 PM84 °FScattered clouds.14 mph58%30.07 "HgN/A
2:00 PM84 °FScattered clouds.13 mph58%30.09 "HgN/A
1:00 PM84 °FScattered clouds.12 mph62%30.12 "HgN/A
12:00 PM82 °FScattered clouds.12 mph66%30.12 "HgN/A
11:00 AM81 °FScattered clouds.14 mph70%30.15 "HgN/A
10:00 AM77 °FScattered clouds.13 mph79%30.15 "HgN/A
9:00 AM73 °FBroken clouds.8 mph89%30.12 "HgN/A
8:00 AM70 °FPartly sunny.No wind94%30.12 "HgN/A
7:00 AM72 °FLight rain. Passing clouds.No wind94%30.09 "Hg5 mi
6:00 AM70 °FPassing clouds.No wind100%30.09 "HgN/A
5:00 AM70 °FPassing clouds.5 mph94%30.07 "HgN/A
4:00 AM72 °FPassing clouds.5 mph94%30.07 "HgN/A
3:00 AM70 °FPassing clouds.No wind94%30.07 "HgN/A
2:00 AM72 °FPassing clouds.5 mph94%30.09 "HgN/A
1:00 AM72 °FPassing clouds.5 mph94%30.09 "HgN/A
12:00 AM73 °FPassing clouds.6 mph89%30.09 "HgN/A
Weather by CustomWeather, © 2015

See weather overviewHow to use our weather pages